Location: Shenandoah County Park
(38.9356°N, 78.4524°W)
Time: 07:44:26
(UTC-04:00)

SR - Pass Details

Date: 09 February 2023
Orbit: 583 x 866 km, 66.7° (Epoch: 28 March)

Event Time Altitude Azimuth Distance (km) Brightness Sun altitude
Rises 23:17:24 0° 313° (NW) 2,811 - -61.0°
Reaches altitude 10° 23:20:15 10° 293° (WNW) 1,902 - -61.3°
Maximum altitude 23:23:00 17° 252° (WSW) 1,503 - -61.6°
Drops below altitude 10° 23:25:47 10° 211° (SSW) 1,917 - -61.9°
Sets 23:28:41 0° 191° (SSW) 2,843 - -62.2°
